Vorticity
nan nan nan nan nan nan nan nan nan nan nan nan nan nan nan nan nan nan nan nan nan nan nan nan nan nan nan nan nan nan nan nan nan nan nan nan nan nan nan nan nan nan nan nan nan nan nan nan nan
nan 6 3 5 9 7 6 4 0 1 10 8 9 7 9 8 8 12 10 13 6 5 5 6 5 7 8 8 7 7 6 6 6 7 7 8 7 6 5 4 4 5 7 6 7 5 5 5 nan
nan 4 7 4 6 7 6 4 -0 5 11 7 3 5 9 10 10 7 9 11 7 6 6 5 6 6 6 7 6 6 6 6 5 5 7 8 7 7 5 5 6 7 7 8 7 5 5 5 nan
nan 8 5 4 4 6 5 4 7 10 7 5 5 8 3 9 13 9 10 5 5 6 6 4 7 7 6 5 6 7 5 6 7 5 5 6 6 7 7 8 8 9 9 9 8 8 7 7 nan
nan 5 5 6 8 6 6 4 6 9 10 12 5 3 7 9 12 13 6 6 4 5 6 4 4 7 8 7 6 7 7 8 8 10 11 9 8 8 9 10 10 9 9 9 10 10 10 10 nan
nan 5 7 6 6 4 5 6 5 9 12 9 7 2 9 10 11 7 5 5 5 5 5 5 6 8 8 6 6 7 8 9 9 9 9 10 8 8 8 8 7 7 7 8 8 8 8 8 nan
nan 5 3 8 7 6 8 2 6 7 16 10 9 6 5 10 9 6 6 6 5 4 5 7 5 3 4 7 8 8 7 7 7 8 7 6 6 7 5 6 6 6 6 6 6 6 5 5 nan
nan 7 10 8 7 9 8 2 9 6 6 11 9 10 12 17 8 6 6 6 6 5 6 7 6 4 3 3 4 7 7 8 7 6 4 1 3 4 6 4 3 6 5 5 5 6 6 3 nan
nan 7 7 9 7 8 4 5 5 6 8 6 4 5 16 17 6 6 6 6 6 6 6 6 6 6 5 5 3 4 4 4 3 2 4 2 1 3 2 5 7 5 4 5 5 5 6 6 nan
nan 2 4 5 8 9 3 4 6 9 7 3 6 9 9 7 3 3 3 6 7 6 5 6 6 6 4 5 4 3 2 2 4 5 4 7 5 5 6 3 3 3 3 3 3 6 8 7 nan
nan 2 7 5 8 9 5 7 3 6 3 7 7 12 11 4 4 3 4 5 5 4 6 7 6 5 4 4 4 5 6 7 8 8 7 7 7 6 4 5 4 3 4 5 6 5 8 11 nan
nan 6 4 7 9 5 3 3 3 4 4 4 9 11 13 6 6 6 4 5 7 5 6 6 5 5 5 4 7 7 7 7 8 8 8 6 7 7 7 7 8 7 7 8 9 8 7 7 nan
nan 7 6 6 4 3 6 3 6 5 11 6 6 6 6 8 7 8 6 6 7 7 6 6 5 5 6 5 6 7 7 8 8 7 7 8 8 7 7 7 7 8 8 8 8 7 7 8 nan
nan 10 7 6 7 7 10 9 11 10 13 13 12 9 9 9 9 8 9 8 7 7 7 6 6 6 5 7 6 5 8 8 6 7 8 9 8 8 8 7 7 7 7 8 7 7 8 8 nan
nan 5 8 17 15 13 13 14 9 12 10 12 9 9 12 12 12 9 8 9 8 7 8 7 6 7 6 6 5 6 7 7 7 8 8 8 8 7 7 7 7 7 8 7 8 7 8 9 nan
nan 7 8 11 13 9 5 8 14 15 2 -0 1 5 10 13 13 11 10 11 10 9 8 5 7 8 6 5 5 7 8 7 7 7 7 8 8 8 7 6 6 7 8 8 7 9 8 8 nan
nan 5 11 5 6 6 4 2 12 -2 -6 2 6 5 6 9 12 15 11 11 11 10 8 7 7 7 6 4 6 7 7 6 7 7 8 7 6 7 7 8 8 7 7 7 8 8 9 10 nan
nan 7 4 5 4 4 2 3 -2 -1 6 8 6 7 6 7 9 16 15 12 11 11 8 6 7 9 5 3 5 6 6 7 7 7 9 8 7 8 7 7 8 8 8 8 7 8 10 9 nan
nan 6 5 4 1 6 8 5 7 7 7 7 8 8 9 9 10 15 16 12 11 10 9 7 6 5 3 5 6 6 7 6 7 9 9 7 7 7 7 7 7 7 8 8 9 8 6 10 nan
nan 7 6 5 9 8 6 3 9 20 20 12 13 14 12 13 13 12 14 12 10 9 8 7 6 5 2 5 7 8 8 8 7 8 7 7 8 8 8 8 8 8 7 6 7 11 10 6 nan
nan 7 9 8 7 7 11 15 18 13 10 18 21 16 12 13 17 14 14 11 11 9 9 8 8 6 6 5 5 7 6 7 8 7 7 7 7 7 8 9 9 8 7 7 7 8 10 9 nan
nan 11 6 8 6 8 8 15 12 10 11 8 7 11 13 12 15 18 16 12 10 9 11 10 9 6 8 7 7 5 4 6 7 7 8 9 8 7 8 8 8 8 9 8 7 7 9 10 nan
nan 8 12 13 9 12 7 4 7 17 19 3 -5 4 8 8 12 18 19 17 14 13 12 10 10 8 8 5 5 4 6 7 8 10 8 5 6 7 8 8 8 8 8 8 9 9 9 10 nan
nan 18 14 11 15 12 16 7 3 10 10 9 4 7 8 9 11 15 19 18 17 16 13 12 10 8 7 7 8 7 8 7 8 8 5 6 7 7 8 8 8 8 9 8 8 8 9 10 nan
nan 5 12 13 7 2 13 18 18 11 5 9 9 10 10 10 10 11 14 16 15 14 12 12 12 10 9 10 9 10 10 9 10 6 7 7 7 8 8 9 9 9 8 8 8 8 8 8 nan
nan 5 1 2 -1 6 9 14 15 8 6 6 8 8 8 9 10 11 11 11 15 14 13 10 11 12 12 13 10 12 8 8 10 10 9 8 10 10 9 9 10 8 7 8 9 8 8 8 nan
nan 11 9 10 9 8 8 6 5 2 3 5 4 5 7 8 9 12 11 14 15 14 16 15 13 10 12 11 11 11 9 11 11 12 9 9 10 9 9 8 8 8 8 7 8 9 10 8 nan
nan 12 21 17 20 17 12 2 11 11 5 5 1 3 7 8 7 9 12 13 15 16 17 17 13 12 10 10 9 10 10 11 12 10 10 11 9 10 9 7 7 8 8 9 9 9 9 9 nan
nan 3 3 11 14 17 14 17 20 10 3 3 5 7 9 7 7 9 12 13 14 14 14 16 14 12 8 9 11 10 11 11 9 9 10 10 9 8 7 8 7 8 9 9 9 10 9 9 nan
nan nan nan nan nan nan nan nan nan nan nan nan nan nan nan nan nan nan nan nan nan nan nan nan nan nan nan nan nan nan nan nan nan nan nan nan nan nan nan nan nan nan nan nan nan nan nan nan nan
CAPE
0 0 0 0 0 0 0 0 0 2 100 1097 418 328 267 638 473 869 1736 1643 1841 1746 1518 1487 1637 1831 1904 1988 2040 2109 2080 1981 1841 1783 1939 1959 1918 1791 1707 1680 1730 1684 1679 1705 1636 1710 1587 1330 1008
0 0 0 0 0 0 0 0 0 0 9 827 929 891 713 808 1606 1881 1682 1796 1665 1641 1619 1550 1479 1721 1822 1823 1831 1897 2011 1918 1831 1724 1586 1719 1875 1648 1549 1544 1563 1563 1623 1547 1565 1328 1113 1040 986
0 0 0 0 0 0 0 0 0 0 470 897 1056 1204 1221 1507 1817 1826 1823 1697 1642 1574 1655 1570 1121 1233 1407 1394 1416 1393 1345 1243 1125 1181 1278 1591 1686 1605 1493 1455 1501 1423 1441 1565 1619 1412 1045 745 669
0 0 0 0 0 0 0 0 0 0 327 974 1182 1405 1709 1927 1777 1593 1601 1722 1703 1445 1463 889 849 981 1110 1115 897 855 825 941 844 708 839 894 1102 1215 1224 1271 1350 1369 1412 1379 1407 1217 983 761 665
0 0 0 0 0 0 0 0 0 0 0 619 1309 1486 1967 1994 1793 1585 1391 1211 1193 1093 1251 1024 538 742 730 474 229 224 221 387 588 516 506 581 655 140 0 18 44 75 48 46 113 196 331 411 501
0 0 0 0 0 0 0 0 0 0 0 137 1173 1489 2171 1869 1680 1236 1010 980 1079 981 818 595 437 521 433 167 77 104 139 151 131 212 240 63 5 8 0 0 0 0 0 0 0 0 0 0 0
0 0 0 0 0 0 0 0 0 0 9 0 1040 1294 1932 1545 1434 1008 994 1104 814 668 382 524 676 135 3 0 0 0 7 9 6 2 0 0 0 0 0 0 0 0 0 0 0 0 0 0 0
0 0 0 0 0 0 0 0 0 0 8 421 852 797 1427 1834 1118 910 1077 881 479 320 688 759 453 215 1 0 0 0 0 0 0 0 0 0 0 0 0 0 0 0 0 0 0 0 0 0 0
0 0 0 0 0 0 0 0 0 0 0 441 819 861 1124 1770 817 839 759 536 578 609 556 244 112 32 0 0 0 0 0 0 0 0 0 0 0 0 0 0 0 0 0 0 0 0 0 0 0
0 0 0 0 0 0 0 0 0 0 0 9 132 714 1220 1367 890 444 402 530 617 402 76 0 0 0 0 0 0 0 0 0 0 0 0 0 0 0 0 0 0 0 0 0 0 0 0 0 0
0 0 0 0 0 0 0 0 0 0 0 0 0 32 1097 1340 1469 897 483 811 911 345 0 0 0 0 0 0 0 0 0 0 0 0 0 0 0 0 0 0 0 0 0 0 0 0 0 0 0
0 0 0 0 0 0 0 0 0 0 0 0 0 0 745 1244 1509 1401 938 1379 1107 288 0 0 0 0 0 0 0 0 0 0 0 0 0 0 0 0 0 0 0 0 0 0 0 0 0 0 0
0 0 0 0 0 0 0 0 0 0 0 0 0 0 20 591 1278 1558 1629 1622 1099 359 0 0 0 0 0 0 0 0 0 0 0 0 0 0 0 0 0 0 0 0 0 0 0 0 0 0 0
0 0 0 0 0 0 0 0 0 0 0 0 0 0 0 22 423 1216 1590 1575 956 362 0 0 0 0 0 0 0 0 0 0 0 0 0 0 0 0 0 0 0 0 0 0 0 0 0 0 0
0 0 0 0 0 0 0 0 0 0 0 0 0 0 0 0 20 650 1219 1279 858 310 0 0 0 0 0 0 0 0 0 0 0 0 0 0 0 0 0 0 0 0 0 0 0 0 0 0 0
0 0 0 0 0 0 0 0 0 0 0 0 0 0 0 0 0 229 826 881 719 253 0 0 0 0 0 0 0 0 0 0 0 0 0 0 0 0 0 0 0 0 0 0 0 0 0 0 0
0 0 0 0 0 0 0 0 0 0 0 0 0 0 0 0 0 30 445 795 669 222 0 0 0 0 0 0 0 0 0 0 0 0 0 0 0 0 0 0 0 0 0 0 0 0 0 0 0
0 0 0 0 0 0 0 0 0 0 0 0 0 0 0 0 0 0 231 569 453 98 0 0 0 0 0 0 0 0 0 0 0 0 0 0 0 0 0 0 0 0 0 0 0 0 0 0 0
0 0 0 0 0 0 0 0 0 0 0 0 0 0 0 0 0 0 138 430 250 3 0 0 0 0 0 0 0 0 0 0 0 0 0 0 0 0 0 0 0 0 0 0 0 0 0 0 0
0 0 0 0 0 0 0 0 0 0 0 0 0 0 0 0 0 0 172 330 7 1 0 0 0 0 0 0 0 0 0 0 0 0 0 0 0 0 0 0 0 0 0 0 0 0 0 0 0
0 0 0 0 0 0 0 0 0 0 0 0 0 0 0 0 0 0 119 139 0 6 1 0 0 0 0 0 0 0 0 0 0 0 0 0 0 0 0 0 0 0 0 0 0 0 0 0 0
0 0 0 0 0 0 0 0 0 0 0 0 0 0 0 0 0 0 0 2 0 5 10 0 0 0 0 0 0 0 0 0 0 0 0 0 0 0 0 0 0 0 0 0 0 0 0 0 0
0 0 0 0 0 0 0 0 0 0 0 0 0 0 0 0 0 0 0 0 0 7 10 2 0 0 0 0 0 0 0 0 0 0 0 0 0 0 0 0 0 0 0 0 0 0 0 0 0
0 0 0 0 0 0 0 0 0 0 0 0 0 0 0 0 0 0 0 0 0 10 13 8 2 0 0 0 0 0 0 0 0 0 0 0 0 0 0 0 0 0 0 0 0 0 0 0 0
0 0 0 0 0 0 0 0 0 0 0 0 0 0 0 0 0 0 0 0 0 5 14 9 7 2 2 0 2 0 0 0 0 0 0 0 0 0 0 0 0 2 2 0 0 0 0 0 0
0 0 0 0 0 0 0 0 0 0 0 0 0 0 0 0 0 0 0 0 0 0 8 12 5 3 3 4 5 0 0 0 0 0 0 0 0 0 1 1 3 2 0 0 0 0 0 0 0
4 0 0 14 0 7 3 1 3 0 0 0 0 0 0 0 0 0 0 0 0 0 8 9 4 0 1 1 0 0 0 0 0 0 0 0 0 1 4 3 4 3 0 0 0 0 0 0 0
40 25 39 37 27 19 24 14 15 0 0 0 0 0 0 0 0 0 0 0 0 0 5 5 6 2 0 0 0 0 0 0 0 0 0 1 2 3 4 1 0 0 0 0 0 0 0 0 0
14 151 50 51 217 71 41 43 4 0 0 0 0 0 0 0 0 0 0 0 0 2 5 4 8 2 0 0 0 0 0 0 2 2 3 3 6 5 2 1 0 0 0 0 0 0 0 0 0
11 21 7 26 63 112 142 76 0 9 9 0 0 0 0 0 0 0 0 2 4 5 6 14 9 2 0 0 0 0 1 3 3 6 4 5 6 4 2 2 0 0 0 0 0 0 0 0 0